This demonstration page uses our WeatherBlox Daily Observations layout. Learn more.

Left ArrowRight Arrow

Hourly Observations for December 6, 2021

Temp ( °F °C ) Dew Point ( °F °C ) Humidity (%) Winds ( mph kmh ) Pressure ( in mb ) Visibility ( mi km ) Precip ( " mm )
12:06 am 00:06 Cloudy with Thunderstorms 60 15.6 57 13.9 90 90 VRB 7 11 29.73 1007 10 16 0.00 0.00
12:24 am 00:24 Cloudy with Thunderstorms 61 16.1 57 13.9 87 87 W 7 11 29.71 1006 10 16 0.00 0.00
12:53 am 00:53 Cloudy with Thunderstorms 59 15 55 12.8 87 87 W 10 17 29.71 1006 10 16 0.00 0.00
1:00 am 01:00 Cloudy with Strong Thunderstorms 58 14.4 54 12.2 87 87 W 14 22 29.71 1006 3 4 0.11 2.79
1:07 am 01:07 Cloudy with Thunderstorms 57 13.9 55 12.8 93 93 W 13 20 29.70 1006 1 2 0.20 5.08
1:11 am 01:11 Cloudy with Nearby Thunderstorms 58 14.4 55 12.8 90 90 WSW 20 31 29.72 1006 2 3 0.21 5.33
1:16 am 01:16 Cloudy with Nearby Thunderstorms 57 13.9 55 12.8 93 93 WSW 8 13 29.71 1006 2 2 0.32 8.13
1:21 am 01:21 Cloudy with Heavy Rain 57 13.9 55 12.8 93 93 WSW 13 20 29.71 1006 1 1 0.42 10.67
1:29 am 01:29 Cloudy with Heavy Rain 56 13.3 54 12.2 93 93 SW 9 15 29.69 1005 1 2 0.52 13.21
1:39 am 01:39 Cloudy with Heavy Rain 56 13.3 54 12.2 93 93 SW 6 9 29.68 1005 1 1 0.68 17.27
1:46 am 01:46 Cloudy with Light Rain 56 13.3 54 12.2 93 93 VRB 3 6 29.68 1005 2 3 0.69 17.53
1:49 am 01:49 Cloudy with Light Rain 55 13 54 12 94 94 SE 5 7 29.67 1005 7 11 0.69 17.53
1:53 am 01:53 Cloudy 56 13.3 54 12.2 93 93 ESE 6 9 29.66 1004 10 16 0.69 17.53
2:04 am 02:04 Cloudy with Nearby Thunderstorms 56 13.3 54 12.2 93 93 VRB 7 11 29.69 1005 7 11 0.01 0.25
2:11 am 02:11 Cloudy with Nearby Thunderstorms 57 13.9 55 12.8 93 93 Calm 29.68 1005 9 14 0.01 0.25
2:32 am 02:32 Cloudy with Nearby Thunderstorms 57 13.9 55 12.8 93 93 WSW 10 17 29.69 1005 2 3 0.14 3.56
2:37 am 02:37 Cloudy with Heavy Rain 56 13.3 54 12.2 93 93 SW 8 13 29.69 1005 1 2 0.19 4.83
2:48 am 02:48 Cloudy with Light Rain 57 14 54 12 88 88 VRB 5 7 29.69 1005 2 3 0.26 6.60
2:53 am 02:53 Cloudy with Light Rain 57 13.9 55 12.8 93 93 VRB 5 7 29.68 1005 9 14 0.26 6.60
3:12 am 03:12 Cloudy with Heavy Rain 57 13.9 55 12.8 93 93 WNW 10 17 29.69 1005 2 3 0.16 4.06
3:19 am 03:19 Cloudy with Rain 57 13.9 55 12.8 93 93 WSW 9 15 29.70 1006 2 2 0.18 4.57
3:21 am 03:21 Cloudy with Rain 57 13.9 55 12.8 93 93 WSW 7 11 29.70 1006 3 4 0.20 5.08
3:30 am 03:30 Cloudy with Heavy Rain 57 13.9 56 13.3 96 96 W 7 11 29.70 1006 2 2 0.31 7.87
3:51 am 03:51 Cloudy with Heavy Rain 57 14 55 13 94 94 WSW 14 22 29.69 1005 2 3 0.55 13.97
3:52 am 03:52 Cloudy with Heavy Rain 57 13.9 55 12.8 93 93 WSW 16 26 29.69 1005 2 3 0.56 14.22
4:01 am 04:01 Cloudy with Rain 57 13.9 54 12.2 90 90 WSW 10 17 29.70 1006 3 4 0.04 1.02
4:12 am 04:12 Cloudy with Light Rain 56 13.3 54 12.2 93 93 W 9 15 29.70 1006 4 6 0.07 1.78
4:53 am 04:53 Cloudy with Light Rain 55 12.8 54 12.2 96 96 Calm 29.65 1004 7 11 0.16 4.06
5:53 am 05:53 Cloudy with Light Rain 56 13.3 54 12.2 93 93 WSW 5 7 29.68 1005 10 16 0.02 0.51
6:23 am 06:23 Cloudy with Light Rain 51 10.6 47 8.3 86 86 WNW 16 26 29.72 1006 7 11 0.00 0.00
6:53 am 06:53 Cloudy with Light Rain 48 8.9 43 6.1 83 83 WNW 17 28 29.76 1008 10 16 0.01 0.25
7:08 am 07:08 Cloudy with Light Rain 47 8.3 41 5 80 80 WNW 17 28 29.79 1009 10 16 0.00 0.00
7:53 am 07:53 Cloudy with Light Rain 44 6.7 36 2.2 73 73 WNW 13 20 29.82 1010 10 16 0.01 0.25
8:53 am 08:53 Mostly Cloudy with Light Rain 42 5.6 34 1.1 73 73 WNW 14 22 29.85 1011 10 16 0.00 0.00
9:53 am 09:53 Sunny 41 5 30 -1.1 65 65 W 12 19 29.92 1013 10 16 0.00 0.00
10:10 am 10:10 Mostly Cloudy 40 4.4 31 -0.6 70 70 WNW 21 33 29.95 1014 10 16 0.00 0.00
10:31 am 10:31 Mostly Sunny 40 4.4 28 -2.2 63 63 WNW 16 26 29.97 1015 10 16 0.00 0.00
10:53 am 10:53 Sunny 40 4.4 27 -2.8 60 60 W 14 22 29.97 1015 10 16 0.00 0.00
11:53 am 11:53 Partly Cloudy 37 2.8 24 -4.4 59 59 WNW 17 28 30.00 1016 10 16 0.00 0.00
12:53 pm 12:53 Cloudy 37 2.8 21 -6.1 52 52 W 13 20 30.03 1017 10 16 0.00 0.00
1:53 pm 13:53 Partly Cloudy 38 3.3 19 -7.2 46 46 W 15 24 30.05 1018 10 16 0.00 0.00
2:53 pm 14:53 Sunny 39 3.9 19 -7.2 45 45 W 18 30 30.07 1018 10 16 0.00 0.00
3:53 pm 15:53 Sunny 38 3.3 18 -7.8 44 44 W 13 20 30.11 1020 10 16 0.00 0.00
4:53 pm 16:53 Sunny 37 2.8 21 -6.1 52 52 W 10 17 30.14 1021 10 16 0.00 0.00
5:53 pm 17:53 Clear 35 1.7 21 -6.1 57 57 W 8 13 30.17 1022 10 16 0.00 0.00
6:53 pm 18:53 Clear 33 0.6 21 -6.1 61 61 W 8 13 30.19 1022 10 16 0.00 0.00
7:53 pm 19:53 Clear 32 0 21 -6.1 64 64 WSW 7 11 30.21 1023 10 16 0.00 0.00
8:53 pm 20:53 Mostly Clear 33 0.6 20 -6.7 58 58 W 12 19 30.23 1024 10 16 0.00 0.00
9:53 pm 21:53 Mostly Cloudy 32 0 18 -7.8 56 56 WNW 9 15 30.26 1025 10 16 0.00 0.00
10:53 pm 22:53 Clear 28 -2.2 13 -10.6 53 53 NW 9 15 30.26 1025 10 16 0.00 0.00
11:53 pm 23:53 Clear 26 -3.3 2 -16.7 35 35 WNW 7 11 30.28 1025 10 16 0.00 0.00

Powered by AerisWeather